RH
43 34 34 32 26 27 32 38 39 45 48 50 46 40 36 36 36 36 37 36 35 35 33 33 33 32 30 29 28 26 25 25 26 26 26 28 30 32 31 27 24 21 19
37 36 37 31 29 33 36 36 35 34 34 34 32 32 33 32 31 33 36 37 35 34 34 32 31 30 29 29 28 27 26 26 26 27 28 31 32 33 35 34 31 30 29
38 40 46 38 38 38 36 33 31 30 30 30 31 32 33 34 34 34 34 34 34 33 33 32 31 32 33 31 29 27 26 26 26 27 33 34 35 35 35 36 39 38 34
42 46 50 47 45 43 40 37 36 35 35 34 35 36 36 35 35 34 33 30 32 31 31 30 29 29 29 30 31 29 27 26 25 26 30 33 37 36 36 35 39 44 39
43 49 51 49 48 48 43 39 37 36 34 31 33 34 31 29 27 26 25 23 22 21 21 20 21 23 24 25 26 25 25 25 26 25 26 29 31 34 34 34 34 40 43
47 52 49 50 49 48 40 35 34 33 30 27 26 24 22 20 18 16 16 15 14 14 13 14 16 17 18 19 19 20 21 23 26 29 29 31 34 34 32 32 30 31 36
48 49 48 48 46 41 34 31 29 28 26 25 22 19 18 16 14 12 10 9 9 8 8 9 10 11 12 12 15 18 23 23 26 30 32 32 34 36 37 36 33 31 31
43 47 44 42 37 33 31 29 27 25 21 19 17 16 13 11 9 8 7 7 7 7 8 8 8 8 8 9 9 10 15 19 20 21 26 28 33 36 37 37 35 33 31
41 39 36 35 35 32 30 28 23 19 17 15 13 10 9 8 7 7 7 7 8 8 8 8 8 8 8 8 8 8 9 11 13 14 18 22 23 28 32 36 39 39 36
43 40 36 35 34 32 27 25 20 17 14 11 9 8 8 7 7 7 7 8 8 8 8 8 8 8 8 8 8 9 9 10 11 14 14 15 21 32 39 40 36 37 41
43 39 36 36 33 28 24 21 18 12 10 10 9 8 8 7 7 7 8 8 8 8 8 9 9 9 9 10 11 12 12 14 16 18 19 26 28 31 39 54 59 57 51
47 39 38 35 27 23 21 17 12 10 10 10 9 8 8 8 8 8 8 8 8 8 8 9 10 10 10 11 11 13 13 14 15 16 17 23 28 29 31 36 44 52 48
50 42 40 36 28 23 19 13 11 11 10 10 9 8 8 8 8 8 8 8 8 9 9 9 9 10 10 11 12 13 14 15 16 16 17 21 23 23 26 31 33 29 30
53 45 43 35 29 21 15 12 11 11 10 10 9 8 8 9 9 9 9 8 8 9 9 10 11 13 14 15 16 15 15 16 16 17 18 19 20 23 23 22 21 20 18
52 45 42 34 25 17 14 13 12 11 11 10 9 9 9 9 9 9 8 8 9 10 11 12 13 14 16 17 19 20 21 22 21 20 19 19 21 23 24 24 22 22 20
48 44 41 30 20 15 14 14 13 11 10 10 10 9 9 9 9 8 9 10 11 11 12 13 15 17 19 21 22 24 25 26 26 26 27 27 26 24 23 23 24 24 26
46 44 38 26 18 16 15 15 13 11 11 10 10 10 11 10 9 9 10 11 12 13 15 17 19 21 21 21 22 22 23 24 25 26 25 22 21 20 20 21 20 22 21
48 43 33 21 17 16 15 14 12 11 11 11 11 12 11 10 10 10 12 13 14 16 17 19 21 21 21 22 22 21 21 22 23 22 21 21 20 21 20 21 22 23 24
45 37 26 20 18 17 16 14 13 12 12 13 13 13 12 10 10 12 14 15 16 17 20 22 24 24 23 22 20 20 22 22 22 22 23 24 24 24 24 22 23 25 26
39 30 23 20 19 17 15 14 12 12 13 13 14 13 12 12 11 13 15 16 17 19 22 24 25 23 23 23 20 21 21 22 25 24 26 27 27 28 28 26 26 26 28
31 25 21 20 19 16 15 14 13 14 14 14 14 13 14 14 13 13 16 18 20 21 23 25 24 25 25 25 23 24 26 28 30 29 28 28 28 30 28 29 29 29 29
26 22 20 19 16 16 15 14 15 15 15 14 14 15 15 16 16 14 16 19 21 23 24 25 27 28 28 28 26 26 28 34 32 32 31 30 30 30 29 30 29 29 29
22 20 19 17 17 15 15 16 16 15 15 15 15 15 16 18 19 17 15 19 22 24 26 28 28 29 29 29 31 31 33 32 30 33 32 31 29 33 32 32 30 30 32
21 19 17 16 15 16 17 16 16 15 15 16 16 16 18 20 21 21 15 19 22 24 27 28 28 28 29 30 32 35 34 33 32 31 30 29 30 35 36 37 37 34 33
18 16 16 16 18 18 16 16 16 16 17 16 18 19 20 21 23 23 20 16 20 23 23 24 27 29 28 29 31 32 33 35 35 36 35 32 32 34 36 37 37 36 36
17 18 18 18 18 17 17 16 17 16 17 17 19 21 22 23 23 25 24 19 17 21 22 22 24 28 28 29 28 28 31 36 37 37 35 33 33 31 36 37 38 37 35